W K Kellogg Airport Battle Creek US
ICAO: KBTL
IATA: BTL
Category: Medium
Scheduled Services: No

Elevation: 952 ft
TransAlt. 18000 ft.

Airport Communications:
KALAMAZOO APP/DEP:119.2
ATIS:128.325
CTAF:118.5
GND:121.7
ANG OPS:32.35
LANSING RDO:122.2
BATTLE CREEK TWR:126.825
UNICOM:122.95

KBTL Zoom In..

If you have problems with the map follow the link
https://www.worldairports.se/pages/airport.php?
ICAO=KBTL

Runways:

(A) RW 05L length 10004 ft width 150 ft
---- / hdg 47

(B) RW 05R length 4100 ft width 75 ft
---- / hdg 47

(C) RW 13 length 4835 ft width 100 ft
---- / hdg 130

(D) RW 23L length 4100 ft width 75 ft
---- / hdg 227

(E) RW 23R length 10004 ft width 150 ft
ILS 110.50 / hdg 227

(F) RW 31 length 4835 ft width 100 ft
---- / hdg 310

Location; KBTL
Day. 28 / Time. 14.53 Zulu
* Altimeter: 30.05
* Temperature: 00° c. 32°f.
* Wind from: 310° Speed 07 kn.
Dewpoint: -01° c.
Visibility: 7 Statute Miles.
Clouds: Overcast 900 ft.

KBTL 281453Z 31007KT 7SM OVC009 00/M01 A3005 RMK AO2 SNE1356 SLP184 P0000 60000 I3000 T00001011 51009


Wind From 310°
Speed 07 kn.

 
 
jpsmedia worldairports.se 2020   terms of use